Location: ??
(34.7252°N, 135.5457°E)
Time: 08:45:43
(UTC+00:00)

Cosmos 1725 Rocket - Pass Details

Date: 24 September 2020
Orbit: 961 x 991 km, 82.9° (Epoch: 29 October)

Event Time Altitude Azimuth Distance (km) Brightness Sun altitude
Rises 20:01:54 0° 349° (N) 3,652 7.0 -10.3°
Reaches altitude 10° 20:04:26 10° 346° (NNW) 2,701 6.3 -9.8°
Maximum altitude 20:10:30 62° 268° (W) 1,072 4.0 -8.5°
Drops below altitude 10° 20:16:33 10° 188° (S) 2,689 6.2 -7.3°
Sets 20:19:04 0° 185° (S) 3,634 6.9 -6.8°
